Regional Weather Roundup
Issued by NWS Midland/Odessa, TX

Skip options and go directly to product.
Home | Oldest Version | Previous Version | Current Version | All | Text Only | Save Text | Print | Product List | Glossary On

Skip product version selection by date and time.   
642
ASUS44 KMAF 261410
RWRMAF
MIDLAND AREA WEATHER ROUNDUP
NATIONAL WEATHER SERVICE MIDLAND TX
900 AM CDT THU MAY 26 2016

...IN SOUTHWEST TEXAS AND SOUTHEAST NEW MEXICO...

CITY           SKY/WX    TMP DP  RH WIND       PRES   REMARKS
ALPINE         SUNNY     76  44  31 SW9       30.08S
ANDREWS        FAIR      75  65  71 W10       29.91S
ARTESIA        SUNNY     70  28  21 CALM      29.92S
BIG SPRING     SUNNY     75  64  68 SE16      29.90R
CARLSBAD       SUNNY     80  22  11 W20       29.90R
DRYDEN           N/A     77  63  61 E3        29.90R
FORT STOCKTON  SUNNY     82  49  31 SW15      29.92S
GUAD PASS      NOT AVBL
HOBBS          SUNNY     73  39  29 SW10      29.93S
MARFA          SUNNY     72  46  39 S16       30.06F
MIDLAND AIRPK  SUNNY     81  60  49 SW8       29.89S
MIDLAND INTL   SUNNY     81  58  45 SW18      29.88S
ODESSA         SUNNY     81  55  40 SW12      29.90R
PECOS          SUNNY     76  46  33 W3        29.90S
PRESIDIO       FAIR      82  48  30 S8        29.95F
SEMINOLE       SUNNY     75  60  59 SW12      29.92S
SNYDER         LGT RAIN  74  61  63 SE16      29.88S
WINK           SUNNY     76  54  46 MISG      29.89R
$$
...OTHER STATIONS IN TEXAS...

CITY           SKY/WX    TMP DP  RH WIND       PRES   REMARKS
ABILENE        LGT RAIN  74  61  63 SE22G31   29.87F
AMARILLO       SUNNY     72  57  59 S12G22    29.86S
AUSTIN         LGT RAIN  79  77  94 S8        29.94R FOG
BROWNSVILLE    CLOUDY    83  79  88 S13       29.95F
CORPUS CHRISTI CLOUDY    83  78  85 S9        29.94S
DALLAS FTW     LGT RAIN  78  73  84 S14       29.90S
DEL RIO        CLOUDY    76  67  73 SE12      29.89R
EL PASO        MOSUNNY   71  31  22 W24G31    29.98R
HOUSTON INT    LGT RAIN  79  76  90 S7        30.00R
LUBBOCK        MOSUNNY   74  62  66 SW20      29.88S
SAN ANGELO     CLOUDY    73  69  87 NE3       29.89S
SAN ANTONIO    CLOUDY    80  75  84 S12       29.95S
WACO           TSTM      69  67  93 W12       30.00R FOG
WICHITA FALLS  NOT AVBL
$$
...OTHER LOCATIONS IN NEW MEXICO...

CITY           SKY/WX    TMP DP  RH WIND       PRES   REMARKS
ALAMAGORDO     SUNNY     68  25  19 S7        30.00S
ALBUQUERQUE    MOSUNNY   59  18  20 S6        29.99S
CANNON AFB     PTSUNNY   68  38  33 W13       29.92R
CLOVIS         MOSUNNY   66  46  48 SW13      29.91R
HOLLOMAN AFB   SUNNY     71  23  16 SW6       29.98S
ROSWELL        SUNNY     75  25  15 W6        29.91S
RUIDOSO          N/A     59  19  21 SW18G24   30.08S
SANTA FE       SUNNY     56  19  23 S6        29.99F
TRUTH OR CONSE SUNNY     63  21  20 W7        29.99R
TUCUMCARI      SUNNY     71  25  17 W10       29.87S
$$

USA.gov is the U.S. government's official web portal to all federal, state and local government web resources and services.